Погода в Осоевке

Украина / Сумская область     50°54′05″N   35°09′34″E
темп.,
°C
ветер,
м/с
пор.,
м/с
влажн.,
%
обл.,
%
осадки,
мм/ч
давл.,
гПа
погр.,
м
19 апреля, пн
пн1900:00+5в2393100 0.9 1017141
03:00+5с1294100 1.3 101780
06:00+5всв1294100 0.1 101651
09:00+6св2392100 0.2 1016241
12:00+8св227392 0.1 1016777
15:00+10ссв326165 0.3 10151184
18:00+10ссв326320 0.0 1014851
21:00+7с227412 0.0 101514
20 апреля, вт
вт2000:00+6ссв227740 0.0 101315
03:00+6св2287100 0.0 101343
06:00+6св3593100 0.0 1011153
09:00+9в4683100 0.1 1010502
12:00+11в5679100 1.1 1008731
15:00+10всв5885100 2.5 1006584
18:00+8св5993100 1.7 1004574
21:00+8с4793100 1.8 1004500
21 апреля, ср
ср2100:00+7сз3692100 0.2 1004465
03:00+7зсз3794100 0.3 1005486
06:00+6з499391 0.1 1007591
09:00+8з577682 0.1 1009929
12:00+9з576985 0.4 10111084
15:00+9зюз586982 0.9 10121089
18:00+10юз576374 0.1 10131191
21:00+7ююз3579100 0.1 101586
22 апреля, чт
чт2200:00+6ю358448 0.0 101677
03:00+5ю398431 0.0 1016158
06:00+5ю410875 0.0 1017198
09:00+11ююз587236 0.0 1018427
12:00+15юз565414 0.1 10181509
15:00+16юз464575 0.3 10172209
18:00+14юз2461100 0.0 101890
21:00+12ю3367100 0.0 101952
23 апреля, пт
пт2300:00+11ю3569100 0.0 1019103
03:00+10ю367189 0.0 1018100
06:00+10ю3875100 0.0 1018186
09:00+12ю586882 0.0 1018390
12:00+16ю795257 0.0 10171241
15:00+16ю7954100 0.3 10152152
18:00+16ю71155100 0.5 1014890
21:00+12юз4876100 1.4 1015235